[[{"header":{"parameterUnit":"m.s-1","parameterCategory":1,"la1":30.2991,"la2":30.254,"lo1":-89.0895,"lo2":-89.0444,"dy":0.0017,"dx":0.0017,"nx":28,"ny":28,"refTime":"2024-06-14T09:00:00:Z","depth":0,"parameterNumber":2,"parameterNumberName":"U-component_of_WINDS"},"data":[0,0,0,0,0,0,0,0,0,0,0,0,0,0,0,0,0,0,0,0,0,0,0,0,0,0,0,0,0,0,0,0,0,0,0,0,0,0,0,0,0,0,0,0,0,0,0,0,0,0,0,0,0,0,0,0,0,0,-1.8976,-1.8976,0,-1.897,-1.897,-1.897,-1.8927,-1.8926,-1.8925,-1.8924,-1.8918,-1.8918,-1.8919,0,0,0,0,0,0,0,0,0,0,0,0,0,-1.8954,-1.8954,-1.8976,-1.8976,-1.8976,-1.897,-1.897,-1.897,-1.8928,-1.8926,-1.8925,-1.8924,-1.8917,-1.8918,-1.8919,0,0,0,0,0,0,0,0,0,0,0,0,0,-1.8957,-1.8955,-1.8976,-1.8954,-1.8952,-1.897,-1.897,-1.897,-1.8928,-1.8926,-1.8925,-1.8923,-1.8917,-1.8918,-1.8919,-1.8958,0,0,-1.8923,-1.8923,0,0,0,0,0,0,0,0,-1.8957,-1.8958,-1.8958,-1.8956,-1.8954,-1.8948,-1.8959,-1.8966,-1.8928,-1.8937,-1.8924,-1.8922,-1.8929,-1.8929,-1.8931,-1.8957,-1.8957,-1.8923,-1.8924,-1.8924,-1.8925,0,0,0,0,0,0,0,-1.8957,-1.8958,-1.8974,-1.8958,-1.8955,-1.8945,-1.8944,-1.896,-1.8942,-1.8936,-1.8933,-1.8933,-1.8928,-1.893,-1.8931,-1.8957,-1.8923,-1.8924,-1.8925,-1.8925,-1.9016,-1.9018,0,0,0,0,0,0,-1.896,-1.8958,-1.8974,-1.8974,-1.8952,-1.8947,-1.8946,-1.8951,-1.8941,-1.8938,-1.8934,-1.8931,-1.8929,-1.8929,-1.893,-1.8976,-1.8924,-1.8925,-1.8926,-1.9014,-1.9016,-1.9018,0,0,0,0,0,0,-1.8959,-1.8961,-1.8974,-1.8965,-1.8966,-1.8949,-1.8956,-1.8952,-1.8955,-1.894,-1.8937,-1.894,-1.8928,-1.8929,-1.8952,-1.8975,-1.8926,-1.8927,-1.9012,-1.9015,-1.9017,-1.9066,0,0,0,0,0,0,-1.8959,-1.8962,-1.8975,-1.8966,-1.8967,-1.8995,-1.8957,-1.8953,-1.8957,-1.8952,-1.8945,-1.8942,-1.8927,-1.895,-1.8953,-1.8975,-1.8928,-1.901,-1.9014,-1.9017,-1.9062,-1.907,-1.9076,0,0,0,0,0,-1.8958,-1.8989,-1.8976,-1.8978,-1.8984,-1.8997,-1.8997,-1.8979,-1.8959,-1.8973,-1.8964,-1.8942,-1.8972,-1.8953,-1.8955,-1.8979,-1.9009,-1.9013,-1.9016,-1.9059,-1.9068,-1.9076,0,0,0,0,0,0,-1.9001,-1.8987,-1.8973,-1.9001,-1.9001,-1.899,-1.9007,-1.8989,-1.8994,-1.899,-1.8967,-1.8965,-1.8992,-1.8988,-1.8967,-1.9016,-1.8987,-1.8991,-1.9018,-1.9027,-1.9034,-1.9034,-1.8929,0,0,0,0,0,-1.9014,-1.9026,-1.9013,-1.9039,-1.904,-1.9024,-1.9028,-1.9015,-1.9013,-1.9012,-1.9005,-1.9004,-1.9013,-1.902,-1.9027,-1.9062,-1.906,-1.9079,-1.9086,-1.9092,-1.9096,-1.9116,-1.9124,-1.9031,-1.9031,-1.9031,0,0,-1.904,-1.9034,-1.9043,-1.9048,-1.9045,-1.9059,-1.9023,-1.9038,-1.9048,-1.9014,-1.9036,-1.9031,-1.9029,-1.9058,-1.907,-1.9055,-1.9122,-1.9097,-1.9102,-1.9103,-1.912,-1.9129,-1.9137,-1.9034,-1.9033,-1.9033,0,0,-1.9095,-1.9092,-1.9114,-1.9113,-1.911,-1.91,-1.9105,-1.9097,-1.9093,-1.9114,-1.909,-1.9101,-1.9117,-1.9117,-1.9119,-1.9177,-1.9158,-1.918,-1.9217,-1.9236,-1.9244,-1.925,-1.9272,-1.928,-1.9185,-1.9185,-1.9185,0,-1.9129,-1.9147,-1.9127,-1.9145,-1.9148,-1.9119,-1.9142,-1.9142,-1.9142,-1.9146,-1.9129,-1.915,-1.9146,-1.9175,-1.919,-1.9192,-1.9199,-1.9181,-1.9244,-1.925,-1.9256,-1.9276,-1.9285,-1.9188,-1.9187,-1.9187,-1.9187,0,-1.9189,-1.9202,-1.9221,-1.9222,-1.9228,-1.9248,-1.9232,-1.924,-1.9226,-1.9218,-1.9241,-1.9236,-1.9243,-1.9249,-1.9235,-1.9277,-1.9268,-1.9248,-1.9218,-1.9268,-1.9287,-1.9295,-1.9192,-1.9191,-1.919,-1.9189,0,0,-1.9269,-1.9261,-1.9268,-1.9269,-1.9265,-1.9276,-1.9295,-1.9302,-1.931,-1.9312,-1.9328,-1.9344,-1.9326,-1.9328,-1.9315,-1.9332,-1.9379,-1.931,-1.9309,-1.9323,-1.9427,-1.9442,-1.9451,-1.9367,-1.9368,-1.9369,-1.9427,0,-1.9323,-1.9355,-1.9339,-1.9374,-1.9387,-1.936,-1.9378,-1.9378,-1.9371,-1.9381,-1.9374,-1.9386,-1.936,-1.9362,-1.9378,-1.937,-1.94,-1.9366,-1.9382,-1.9383,-1.9384,-1.9461,-1.9476,-1.9531,-1.9434,-1.9435,-1.9436,0,-1.9389,-1.9394,-1.9431,-1.9426,-1.9431,-1.9446,-1.9453,-1.9463,-1.9463,-1.9457,-1.9461,-1.9444,-1.9464,-1.9434,-1.9462,-1.9439,-1.9445,-1.9443,-1.9445,-1.9446,-1.9413,-1.9464,-1.9548,-1.9557,-1.9447,-1.9446,-1.9446,0,-1.9446,-1.9462,-1.9486,-1.9487,-1.9482,-1.9494,-1.9493,-1.9491,-1.9497,-1.9503,-1.9507,-1.9515,-1.9519,-1.9526,-1.9512,-1.9492,-1.9542,-1.9511,-1.9539,-1.9539,-1.955,-1.955,-1.9637,-1.9554,-1.9554,-1.9553,-1.9553,0,-1.9507,-1.9531,-1.9511,-1.9526,-1.9552,-1.9534,-1.956,-1.9556,-1.9555,-1.9569,-1.9547,-1.9561,-1.9542,-1.9554,-1.9544,-1.9569,-1.9571,-1.9567,-1.9564,-1.957,-1.957,-1.9573,-1.9569,-1.9556,-1.9555,-1.9555,-1.9554,0,-1.9574,-1.9562,-1.9587,-1.9581,-1.958,-1.9599,-1.9594,-1.9608,-1.96,-1.9619,-1.9622,-1.961,-1.9624,-1.9611,-1.9624,-1.9617,-1.9651,-1.9642,-1.9651,-1.9648,-1.9677,-1.9675,-1.9769,-1.9781,-1.969,-1.9691,-1.9692,0,-1.9615,-1.9632,-1.9628,-1.9636,-1.9636,-1.9649,-1.9656,-1.9639,-1.9647,-1.9649,-1.9663,-1.9675,-1.9684,-1.9707,-1.97,-1.971,-1.9702,-1.9734,-1.9703,-1.9708,-1.9703,-1.9702,-1.9705,-1.974,-1.9741,-1.9742,-1.9743,0,-1.9688,-1.9682,-1.9691,-1.97,-1.9708,-1.9714,-1.9718,-1.9726,-1.9709,-1.9719,-1.9733,-1.974,-1.9753,-1.9766,-1.9774,-1.9773,-1.9756,-1.9753,-1.976,-1.9766,-1.977,-1.9769,-1.9669,-1.9751,-1.975,-1.9749,-1.9749,-1.9749,-1.9743,-1.9758,-1.9758,-1.977,-1.9772,-1.9777,-1.979,-1.9785,-1.9796,-1.9806,-1.9795,-1.9813,-1.9814,-1.9823,-1.9825,-1.9839,-1.9825,-1.9835,-1.9838,-1.9841,-1.9845,-1.9768,-1.984,-1.984,-1.984,-1.9839,-1.9839,0,-1.9816,-1.9815,-1.9827,-1.9834,-1.9844,-1.9827,-1.9831,-1.984,-1.9856,-1.9859,-1.9868,-1.9885,-1.9897,-1.9892,-1.9903,-1.9915,-1.9908,-1.9919,-1.9918,-1.9919,-1.9856,-1.9849,-1.9925,-1.9925,-1.9925,-1.9925,-1.9925,-1.9925,-1.9856,-1.988,-1.9874,-1.99,-1.9899,-1.9916,-1.992,-1.9925,-1.9927,-1.9947,-1.9957,-1.9954,-1.9953,-1.9965,-1.9976,-1.9974,-1.998,-1.9994,-1.9989,-1.9931,-1.9923,-1.9915,-1.9908,-1.9995,-1.9995,-2.0051,-2.0051,-2.0051]},{"header":{"parameterUnit":"m.s-1","parameterCategory":1,"la1":30.2991,"la2":30.254,"lo1":-89.0895,"lo2":-89.0444,"dy":0.0017,"dx":0.0017,"nx":28,"ny":28,"refTime":"2024-06-14T09:00:00:Z","depth":0,"parameterNumber":3,"parameterNumberName":"V-component_of_WINDS"},"data":[0,0,0,0,0,0,0,0,0,0,0,0,0,0,0,0,0,0,0,0,0,0,0,0,0,0,0,0,0,0,0,0,0,0,0,0,0,0,0,0,0,0,0,0,0,0,0,0,0,0,0,0,0,0,0,0,0,0,3.3222,3.3222,0,3.3235,3.3235,3.3235,3.323,3.323,3.3229,3.3229,3.324,3.324,3.3241,0,0,0,0,0,0,0,0,0,0,0,0,0,3.3193,3.3193,3.3222,3.3222,3.3222,3.3235,3.3235,3.3235,3.323,3.323,3.3229,3.3229,3.324,3.324,3.3241,0,0,0,0,0,0,0,0,0,0,0,0,0,3.3205,3.3194,3.3222,3.3221,3.3221,3.3235,3.3235,3.3235,3.323,3.323,3.3229,3.3229,3.324,3.324,3.3241,3.3255,0,0,3.3244,3.3244,0,0,0,0,0,0,0,0,3.3205,3.3207,3.3221,3.3221,3.3222,3.323,3.3229,3.3242,3.323,3.3227,3.3229,3.3229,3.3237,3.3238,3.3241,3.3256,3.3256,3.3244,3.3244,3.3245,3.3245,0,0,0,0,0,0,0,3.3204,3.3206,3.3227,3.3222,3.3222,3.322,3.3222,3.3231,3.3234,3.3227,3.3227,3.3228,3.3237,3.324,3.3242,3.3256,3.3244,3.3245,3.3245,3.3245,3.3285,3.3285,0,0,0,0,0,0,3.3203,3.3205,3.3227,3.3227,3.3212,3.3221,3.3223,3.3228,3.3234,3.3235,3.3229,3.3228,3.3239,3.3241,3.3242,3.3259,3.3245,3.3246,3.3246,3.3284,3.3285,3.3285,0,0,0,0,0,0,3.3203,3.3205,3.3226,3.3216,3.3219,3.3222,3.3228,3.3228,3.3232,3.3235,3.3236,3.3232,3.3239,3.3241,3.3252,3.326,3.3246,3.3247,3.3283,3.3284,3.3285,3.3294,0,0,0,0,0,0,3.3202,3.3205,3.321,3.3217,3.3219,3.3237,3.3229,3.3229,3.3234,3.3233,3.3238,3.3239,3.3239,3.3251,3.3253,3.3261,3.3247,3.3283,3.3284,3.3285,3.3293,3.3295,3.3297,0,0,0,0,0,3.3201,3.3211,3.3211,3.3213,3.3226,3.3237,3.3239,3.3239,3.3234,3.324,3.3242,3.3239,3.3259,3.3252,3.3255,3.3262,3.3282,3.3283,3.3285,3.3292,3.3295,3.3297,0,0,0,0,0,0,3.3205,3.3212,3.3211,3.3224,3.323,3.3236,3.3243,3.3241,3.3248,3.3247,3.3247,3.3248,3.326,3.3263,3.3255,3.3277,3.327,3.3271,3.3275,3.3277,3.3279,3.3278,3.3248,0,0,0,0,0,3.3207,3.3216,3.3222,3.3233,3.3236,3.3239,3.3244,3.3244,3.325,3.3252,3.3255,3.326,3.3268,3.3273,3.328,3.3294,3.3295,3.33,3.3302,3.3304,3.3305,3.3313,3.3316,3.3289,3.3289,3.3289,0,0,3.3212,3.3218,3.3223,3.3234,3.3239,3.3247,3.3241,3.325,3.3257,3.3253,3.3264,3.3267,3.3273,3.3286,3.3292,3.3289,3.3313,3.3305,3.3306,3.3307,3.3315,3.3317,3.3319,3.329,3.329,3.329,0,0,3.3226,3.3231,3.3241,3.3246,3.3254,3.3256,3.3259,3.3266,3.3268,3.328,3.3277,3.3285,3.3298,3.3303,3.3307,3.3325,3.3322,3.3327,3.3336,3.3344,3.3346,3.3348,3.3355,3.3357,3.3329,3.3329,3.3329,0,3.3231,3.3244,3.3246,3.3256,3.3262,3.326,3.3271,3.3276,3.3285,3.3288,3.3285,3.3302,3.3306,3.3321,3.3325,3.3329,3.3331,3.3326,3.3346,3.3348,3.335,3.3356,3.3358,3.3329,3.3329,3.3329,3.3329,0,3.325,3.326,3.3267,3.3278,3.3284,3.3294,3.3298,3.3304,3.3304,3.3307,3.332,3.3325,3.3333,3.3337,3.3337,3.3352,3.335,3.3346,3.3339,3.3353,3.3359,3.3361,3.333,3.333,3.333,3.3329,0,0,3.3265,3.3278,3.3281,3.3286,3.3295,3.3302,3.3313,3.3323,3.3328,3.3335,3.3344,3.3356,3.3353,3.3358,3.3359,3.3366,3.338,3.3361,3.3362,3.3365,3.3398,3.34,3.3403,3.3379,3.338,3.338,3.3397,0,3.3279,3.3298,3.3301,3.3318,3.3327,3.3327,3.3337,3.3343,3.3347,3.3355,3.3359,3.3367,3.3363,3.3366,3.3374,3.3377,3.3387,3.3376,3.3387,3.3387,3.3385,3.3406,3.3408,3.3424,3.34,3.34,3.34,0,3.3298,3.3307,3.3325,3.3334,3.3338,3.3347,3.3356,3.3364,3.3372,3.3375,3.3381,3.3381,3.3392,3.3386,3.3401,3.3393,3.3398,3.3401,3.3402,3.3402,3.3394,3.3406,3.3429,3.3431,3.3404,3.3404,3.3403,0,3.3306,3.3323,3.3336,3.3341,3.3352,3.3358,3.3363,3.3371,3.3377,3.3386,3.339,3.3399,3.3404,3.3412,3.3414,3.3409,3.343,3.3423,3.3431,3.3431,3.3435,3.3434,3.3458,3.3439,3.3439,3.3439,3.3439,0,3.3322,3.3333,3.3341,3.3349,3.3361,3.3365,3.3377,3.3382,3.339,3.3398,3.3399,3.3407,3.3411,3.342,3.3422,3.3435,3.3437,3.3439,3.3439,3.3438,3.3438,3.3441,3.3439,3.344,3.344,3.3439,3.3439,0,3.3333,3.3339,3.3353,3.3364,3.3367,3.3376,3.3384,3.3392,3.3397,3.3408,3.3411,3.3417,3.3428,3.3432,3.3445,3.3446,3.3461,3.346,3.3458,3.3458,3.3466,3.3465,3.3492,3.3496,3.3475,3.3475,3.3475,0,3.3342,3.335,3.3363,3.3369,3.3375,3.3385,3.3392,3.3397,3.3404,3.3415,3.3421,3.3432,3.3441,3.3458,3.3464,3.3474,3.3473,3.3482,3.3475,3.3474,3.3473,3.3472,3.3473,3.3483,3.3483,3.3483,3.3484,0,3.3357,3.336,3.337,3.3382,3.339,3.3399,3.3408,3.3413,3.3419,3.3427,3.3439,3.3446,3.346,3.3471,3.3482,3.3486,3.3486,3.3486,3.3489,3.3487,3.3486,3.3487,3.3461,3.3485,3.3485,3.3485,3.3485,3.3485,3.3367,3.3375,3.3386,3.3397,3.3405,3.3414,3.3422,3.3428,3.3438,3.345,3.3453,3.3465,3.3474,3.3489,3.3494,3.3504,3.3501,3.3505,3.3506,3.3506,3.3507,3.3485,3.3506,3.3506,3.3506,3.3506,3.3506,0,3.3382,3.339,3.34,3.3414,3.3423,3.3424,3.3434,3.3441,3.3453,3.3461,3.3471,3.3485,3.3496,3.3503,3.3514,3.3521,3.3521,3.3523,3.3522,3.3524,3.3508,3.3505,3.3523,3.3523,3.3523,3.3523,3.3523,3.3523,3.3391,3.3405,3.341,3.3428,3.3435,3.3448,3.3454,3.3462,3.347,3.3485,3.3495,3.35,3.3509,3.3521,3.3531,3.3533,3.3537,3.354,3.3541,3.3526,3.3525,3.3523,3.352,3.354,3.354,3.3555,3.3556,3.3556]}]]